Location: *
(50.3440°N, 18.6237°E)
Time: 17:45:42
(UTC+00:00)

UNISAT 6 - Visible Passes

Search period start: 14 May 2021 00:00
Search period end: 24 May 2021 00:00
Orbit: 606 x 688 km, 97.7° (Epoch: 13 May)

Date Brightness Start Highest point End Pass type
(mag) Time Alt. Az. Time Alt. Az. Time Alt. Az.
14 May ? 18:57:51 10° N 19:02:10 45° WNW 19:06:33 10° SW visible
15 May ? 19:23:53 10° N 19:27:43 28° WNW 19:31:37 10° WSW visible
16 May ? 19:50:10 10° NNW 19:53:11 18° WNW 19:56:15 10° W visible
17 May ? 20:17:08 10° NW 20:18:34 11° NW 20:20:00 10° WNW visible
19 May ? 19:30:08 10° N 19:33:51 25° WNW 19:37:37 10° WSW visible
20 May ? 19:56:31 10° NNW 19:59:18 16° WNW 20:02:06 10° W visible
21 May ? 20:24:11 10° NW 20:24:39 10° NW 20:25:06 10° WNW visible
22 May ? 19:10:16 10° N 19:14:29 35° WNW 19:18:42 10° SW visible
23 May ? 19:36:25 10° N 19:39:58 22° WNW 19:43:34 10° WSW visible
